Printer-friendly version

IAU Minor Planet Center

Minor Planet Center

MPEC 2005-L54 : COMET C/2005 H1 (LINEAR)

The following Minor Planet Electronic Circular may be linked-to from your own Web pages, but must not otherwise be redistributed electronically.


Read MPEC 2005-L53 Read MPEC 2005-L55


M.P.E.C. 2005-L54                                Issued 2005 June 13, 15:06 UT

     The Minor Planet Electronic Circulars contain information on unusual
         minor planets and routine data on comets.  They are published
   on behalf of Commission 20 of the International Astronomical Union by the
          Minor Planet Center, Smithsonian Astrophysical Observatory,
                          Cambridge, MA 02138, U.S.A.

                  Supported in part by the Brinson Foundation
             Prepared using the Tamkin Foundation Computer Network

                              MPC@CFA.HARVARD.EDU
          URL http://cfa-www.harvard.edu/iau/mpc.html  ISSN 1523-6714

                           COMET C/2005 H1 (LINEAR)

Observations:
    CK05H010  C2005 06 04.67064 16 33 06.85 +45 52 11.0          19.4 T EL054360
    CK05H010  C2005 06 04.67561 16 33 06.47 +45 52 08.1                 EL054360
    CK05H010  C2005 06 04.68050 16 33 06.14 +45 52 06.2                 EL054360
    CK05H010  C2005 06 07.95384 16 29 16.67 +45 24 49.6          20.0 T EL054170
    CK05H010  C2005 06 07.95693 16 29 16.45 +45 24 48.1          20.0 T EL054170
    CK05H010  C2005 06 07.95847 16 29 16.35 +45 24 47.4          20.0 T EL054170
    CK05H010  C2005 06 07.96002 16 29 16.25 +45 24 46.5          19.9 T EL054170
    CK05H010  C2005 06 07.96233 16 29 16.08 +45 24 45.2          19.9 T EL054170
    CK05H010  C2005 06 07.96311 16 29 16.01 +45 24 44.7          19.8 T EL054170
    CK05H010  C2005 06 09.92157 16 27 01.73 +45 07 13.9          20.0 T EL054224
    CK05H010  C2005 06 09.92953 16 27 01.11 +45 07 09.0          19.4 T EL054224
    CK05H010  C2005 06 09.93752 16 27 00.54 +45 07 04.4          19.1 T EL054224
    CK05H010  C2005 06 09.94550 16 27 00.02 +45 07 00.2          19.1 T EL054224
    CK05H010  C2005 06 10.30874 16 26 35.44 +45 03 40.3          19.2 T EL054703
    CK05H010  C2005 06 10.31547 16 26 35.08 +45 03 37.8          19.1 T EL054703
    CK05H010  C2005 06 10.32218 16 26 34.62 +45 03 34.6          19.3 T EL054703
    CK05H010  C2005 06 10.32887 16 26 33.97 +45 03 32.5          19.2 T EL054703
    CK05H010  C2005 06 12.91293 16 23 42.18 +44 38 52.5                 EL054213
    CK05H010  C2005 06 12.91528 16 23 42.05 +44 38 50.5                 EL054213

Observer details:
170 Observatorio de Begues.  Observer J. Manteca.  0.36-m f/10
    Schmidt-Cassegrain + CCD.
213 Observatorio Montcabre.  Observer R. Naves.  Measurer M. Campas.  0.30-m
    f/5.9 Schmidt-Cassegrain + CCD.
224 Ottmarsheim.  Observer C. Rinner.  0.4-m f/3.0 reflector + CCD.
360 Kuma Kogen.  Observer A. Nakamura.  0.60-m f/5.8 Ritchey-Chretien + CCD.
703 Catalina Sky Survey.  Observer E. J. Christensen.  Measurers E. C. Beshore,
    C. M. Casey, E. J. Christensen, G. J. Garradd, A. D. Grauer, R. E. Hill,
    S. M. Larson, R. H. McNaught.  0.68-m Schmidt + CCD.

Orbital elements:
    C/2005 H1 (LINEAR)
T 2004 Oct. 28.3290 TT                                  MPC
q   4.767946             (2000.0)            P               Q
z  +0.021642       Peri.   95.1849      -0.1681135      -0.3034474
                   Node    71.4943      -0.4276171      -0.8348133
e   0.896812       Incl.   81.5100      +0.8881900      -0.4593544
From 124 observations 2005 Apr. 30-June 12.

Brian G. Marsden             (C) Copyright 2005 MPC           M.P.E.C. 2005-L54

Read MPEC 2005-L53 Read MPEC 2005-L55


Our Web policy. Index to the CBAT/MPC/ICQ pages.


Valid HTML 4.01!